Погода в Грабове

Россия / Пензенская область     53°22′38″N   45°03′47″E
темп.,
°C
ветер,
м/с
пор.,
м/с
влажн.,
%
обл.,
%
осадки,
мм/ч
давл.,
гПа
погр.,
м
8 мая, сб
сб800:00+7с379430 0.3 1016252
03:00+5с35955 0.3 101793
06:00+6ссв37905 0.0 1017229
09:00+11всв337966 0.0 1016674
12:00+12в2372100 0.0 1015833
15:00+16ююв56587 0.0 10131322
18:00+14ююз4868100 0.0 1011260
21:00+11ююв337594 0.0 101143
9 мая, вс
вс900:00+11ююв51469100 0.0 1009318
03:00+12ю51474100 0.5 1009419
06:00+11ююв41084100 0.0 1009320
09:00+14ююз5778100 0.0 1009744
12:00+11з5593100 3.1 1011483
15:00+7з4892100 5.1 1014531
18:00+8зсз4792100 0.1 1015537
21:00+6сз5892100 0.2 1018515
10 мая, пн
пн1000:00+5ссз61089100 0.0 1019575
03:00+5с61290100 0.8 1020636
06:00+5с61391100 1.1 1022649
09:00+5ссв61192100 2.1 1024668
12:00+7ссв61389100 0.1 1024602
15:00+9ссв81383100 0.2 1024659
18:00+9ссв81587100 0.1 1024496
21:00+8св81686100 0.1 1025488
11 мая, вт
вт1100:00+7св61488100 0.0 1026474
03:00+7св61488100 0.0 1025482
06:00+7св61485100 0.0 1026528
09:00+11св71278100 0.0 1026529
12:00+16всв7106799 0.0 1026883
15:00+18всв810635 0.0 10251105
18:00+15всв71373100 0.0 1025673
21:00+12всв5137699 0.1 1026461
12 мая, ср
ср1200:00+11св478592 0.9 1027157
03:00+10св488998 0.9 1026181
06:00+11всв4108891 0.0 1026298
09:00+13всв51084100 0.0 1026318
12:00+15всв61280100 0.0 1026421
15:00+21в6965100 0.0 10241026
18:00+18всв61174100 0.3 1025488
21:00+15в51272100 0.3 1025396